Tracking 29892 objects as of 21-Nov-2024
HD Live streaming from Space Station
objects crossing your sky now

ONEWEB-0402

Track ONEWEB-0402 now!
10-day predictions
ONEWEB-0402 is classified as:


NORAD ID: 50482
Int'l Code: 2021-132P
Perigee: 1,195.2 km
Apogee: 1,198.6 km
Inclination: 87.9 °
Period: 109.2 minutes
Semi major axis: 7567 km
RCS: Unknown
Launch date: December 27, 2021
Source: United Kingdom (UK)
Launch site: TYURATAM MISSILE AND SPACE COMPLEX (TTMTR)
Your satellite tracking list
Your tracking list is empty




NASA's NSSDC Master Catalog

Two Line Element Set (TLE):
1 50482U 21132P   24325.77029002  .00000028  00000-0  39238-4 0  9990
2 50482  87.9089  89.5447 0002233  91.3223 268.8165 13.18683518146066
Source of the keplerian elements: AFSPC